Regional Weather Roundup
Issued by NWS

Home | Current Version | Previous Version | Text Only | Print | Product List | Glossary Off
Versions: 1 2 3 4 5 6 7 8 9 10 11 12 13 14 15 16 17 18 19 20 21 22 23 24 25 26 27 28 29 30 31 32 33 34 35 36 37 38 39 40 41 42 43 44 45 46 47 48 49 50

000
ASUS43 KMPX 091510
RWRMN
WEATHER ROUNDUP FOR MINNESOTA
NATIONAL WEATHER SERVICE TWIN CITIES/CHANHASSEN MN
900 AM CST TUE FEB 09 2016


NOTE: "FAIR" INDICATES FEW OR NO CLOUDS BELOW 12,000 FEET WITH NO
SIGNIFICANT WEATHER AND/OR OBSTRUCTIONS TO VISIBILITY. N/A MEANS
CURRENT SKY AND/OR WEATHER CONDITIONS ARE NOT AVAILABLE.

MNZ060>063-068>070-091600-
   Twin Cities Metro

CITY           SKY/WX    TMP DP  RH WIND       PRES   REMARKS
TWIN CITIES    MOSUNNY    7  -2  66 NW16G32   30.10S WCI -11
ST PAUL        SUNNY      6  -2  69 NW16      30.12R WCI -12
CRYSTAL        SUNNY      7  -2  66 NW18G24   30.10S WCI -12
BLAINE         MOSUNNY    9   0  66 NW16G23   30.09R WCI  -9
LAKEVILLE      SUNNY      5   0  78 NW15G22   30.09R WCI -13
EDEN PRAIRIE   SUNNY      7  -3  64 NW20G30   30.08F WCI -13
SOUTH ST PAUL  SUNNY      8  -2  65 NW13G21   30.10S WCI  -8
LAKE ELMO      FAIR       7   0  72 NW10G17   30.09S WCI  -8
$$
MNZ001>005-007-008-013>017-022>024-027-028-091600-
   Northwest Minnesota

CITY           SKY/WX    TMP DP  RH WIND       PRES   REMARKS
BEMIDJI        CLOUDY    -6 -10  84 NW7       30.18R WCI -21
HALLOCK        CLOUDY     7   0  72 N12       30.31R WCI  -9
ROSEAU         CLOUDY    -6 -11  77 NW5       30.26R WCI -17
WARROAD        CLOUDY    -2  -6  84 NW7       30.24S WCI -16
CROOKSTON      MOSUNNY    9   3  78 N16       30.30R WCI  -9
FOSSTON        CLOUDY     1  -2  85 NW9       30.23R WCI -14
DETROIT LAKES  CLOUDY     5   1  85 N13       30.22R WCI -12
MOORHEAD       MOSUNNY    9   5  85 N10       30.28S WCI  -6
PARK RAPIDS    SUNNY      1  -5  75 NW10      30.16R WCI -15
MAHNOMEN       CLOUDY     3  -1  81 N9        30.23R WCI -11
$$
MNZ006-009>011-018-025>026-091600-
   North Central Minnesota

CITY           SKY/WX    TMP DP  RH WIND       PRES   REMARKS
BAUDETTE       CLOUDY    -4  -9  79 NW8       30.20R HAZE    WCI -19
FLAG ISLAND    CLOUDY     1  -2  85 NW14      30.22R WCI -17
INTL FALLS     CLOUDY    -4 -10  75 NW13      30.14S WCI -23
WASKISH        CLOUDY    -6  -9  84 W5        30.20R WCI -17
LONGVILLE      SUNNY      0  -6  78 NW6       30.14R WCI -12
GRAND RAPIDS   SUNNY     -2  -9  71 NW18      30.09S WCI -24
CRANE LAKE     CLOUDY    -4  -9  77 N7        30.13R WCI -18
ORR            CLOUDY    -4 -11  71 NW7       30.06F WCI -18
COOK           CLOUDY    -2  -8  78 NW9G17    30.08S HAZE    WCI -18
WALKER         PTSUNNY   -2  -7  81 NW12      30.17R WCI -20
$$
MNZ012-019>021-037-091600-
   Northeast Minnesota

CITY           SKY/WX    TMP DP  RH WIND       PRES   REMARKS
DULUTH         PTSUNNY    0  -6  76 NW13      30.00S WCI -18
ELY            CLOUDY     0  -6  78 NW7       30.02S WCI -13
HIBBING        MOSUNNY   -3  -8  79 NW17      30.06S WCI -24
EVELETH        LGT SNOW   1  -6  71 NW10      30.05S WCI -14
DULUTH HARBOR  CLOUDY     5  -2  72 W9        30.10S WCI  -9
TWO HARBORS    SUNNY      7  -2  66 NW12G21   29.99S WCI  -9
SILVER BAY     LGT SNOW   5  -6  61 NW10G20   29.99R WCI -10
GRAND MARAIS     N/A      6  -5  60 N3        30.01R
G MARAIS ARPRT CLOUDY    -2  -9  71 NW17G25   29.88R WCI -24
$$
MNZ029>031-032-039>041-046>048-054>057-064-091600-
   West Central Minnesota

CITY           SKY/WX    TMP DP  RH WIND       PRES   REMARKS
FERGUS FALLS   CLOUDY     7   1  78 N14       30.27S WCI -10
WHEATON        CLOUDY    10   7  85 NW12      30.29R WCI  -4
MORRIS         CLOUDY     7   1  78 NW18G25   30.22R WCI -12
ALEXANDRIA     SUNNY      4  -3  73 NW13      30.17R WCI -13
ELBOW LAKE     CLOUDY     5   1  82 NW14G22   30.23R WCI -12
WADENA         MOSUNNY    1  -4  78 NW9       30.17S WCI -14
GLENWOOD       SUNNY      3   0  85 NW15      30.17R WCI -15
APPLETON       CLOUDY     9   1  72 NW17      30.25R WCI -10
BENSON         SUNNY      7   0  72 N14       30.22R WCI -10
ORTONVILLE     CLOUDY     9   1  72 NW12      30.25R WCI  -6
MADISON        CLOUDY    10   1  67 NW20      30.26R WCI  -8
WILLMAR        FAIR       7   1  78 NW15      30.19S WCI -11
$$
MNZ033>034-036-042>043-049>051-058-059-091600-
   Central Minnesota

CITY           SKY/WX    TMP DP  RH WIND       PRES   REMARKS
ST CLOUD       SUNNY      4  -4  69 NW16G26   30.13S WCI -15
SAUK CENTRE    FAIR       3  -3  78 NW12      30.16S WCI -14
PAYNESVILLE    SUNNY      4  -1  77 NW13G18   30.17R WCI -13
AITKIN         SUNNY      3  -8  60 NW8G16    30.10S WCI -10
PINE RIVER     SUNNY      1  -6  71 NW10G18   30.17S WCI -14
BRAINERD       SUNNY      1  -5  75 N16       30.14R WCI -19
STAPLES        SUNNY      1  -6  71 NW12      30.17R WCI -15
LONG PRAIRIE   FAIR       3  -2  78 NW12      30.16R WCI -13
LITTLE FALLS   SUNNY      3  -4  72 NW8       30.16R WCI -10
LITCHFIELD     SUNNY      5   0  78 NW16      30.15S WCI -14
BUFFALO        SUNNY      6  -2  68 NW13G21   30.14S WCI -10
MAPLE LAKE     SUNNY      7   0  73 NW16      30.14S WCI -11
$$
MNZ037-044-045-052-053-091600-
   East Central Minnesota

CITY           SKY/WX    TMP DP  RH WIND       PRES   REMARKS
PRINCETON      SUNNY      7  -2  66 NW13G18   30.11S WCI  -9
MORA           SUNNY      5  -4  66 N15       30.10S WCI -13
CAMBRIDGE      SUNNY      7  -2  66 NW9       30.09S WCI  -7
RUSH CITY      SUNNY      4  -3  72 N7        30.10S WCI  -8
MOOSE LAKE     MOSUNNY    3  -6  66 NW10      30.07R WCI -12
HINCKLEY       FAIR       5  -2  72 NW16      30.08F WCI -14
CLOQUET        CLOUDY     0  -6  78 NW15G25   30.03S WCI -20
MCGREGOR       SUNNY      1  -4  78 NW14G20   30.09S WCI -17
$$
MNZ071>073-080-081-089-090-097-098-091600-
   Southwest Minnesota

CITY           SKY/WX    TMP DP  RH WIND       PRES   REMARKS
MONTEVIDEO     SUNNY      9   3  78 N16G23    30.24S WCI  -9
GRANITE FALLS  SUNNY      8   3  79 NW21G26   30.24R WCI -11
CANBY          PTSUNNY   12   4  72 W16       30.26R WCI  -5
MARSHALL       SUNNY      7   1  76 N22       30.21F WCI -14
REDWOOD FALLS  SUNNY      7   0  73 NW17G24   30.19R WCI -12
OLIVIA         SUNNY      9   1  72 NW17      30.18S WCI -10
PIPESTONE      SUNNY      7  -6  56 NW13G20   30.18S WCI  -9
WINDOM         SUNNY      3   0  85 NW24      30.14R WCI -20
WORTHINGTON    SUNNY      3  -2  78 N22       30.16S WCI -19
JACKSON        MOSUNNY    5   0  78 NW22G29   30.13S WCI -16
TRACY          SUNNY      7   2  78 NW20G25   30.19S WCI -12
SLAYTON        SUNNY      4   0  84 NW17G25   30.17R WCI -15
$$
MNZ065>067-074>077-082>085-091>093-091600-
   South Central Minnesota

CITY           SKY/WX    TMP DP  RH WIND       PRES   REMARKS
MANKATO        SUNNY      7   0  72 NW17G25   30.12R WCI -12
NEW ULM        SUNNY      5  -2  72 NW22G29   30.14S WCI -16
ST JAMES       SUNNY      7   1  78 NW24      30.16R WCI -15
FAIRMONT       SUNNY      7   0  72 NW23G29   30.11R WCI -14
GLENCOE        SUNNY      7   1  76 NW14G21   30.14R WCI -10
FARIBAULT      SUNNY      7  -2  66 NW12G18   30.09R WCI  -9
OWATONNA       SUNNY      5  -2  72 NW15      30.07S WCI -13
WASECA         SUNNY      7   0  72 NW18      30.10S WCI -12
ALBERT LEA     SUNNY      7   0  72 NW14G23   30.05R WCI -10
$$
MNZ078>079-086>088-094>096-091600-
   Southeast Minnesota

CITY           SKY/WX    TMP DP  RH WIND       PRES   REMARKS
ROCHESTER      PTSUNNY    5  -1  76 NW25      30.00R HAZE    WCI -18
RED WING       SUNNY      7  -4  61 NW6G20    30.07R WCI  -3
STANTON        SUNNY      7  -1  68 NW13      30.08R WCI  -9
DODGE CENTER   SUNNY      5  -2  72 N21       30.01S WCI -16
WINONA         MOSUNNY   10   1  67 N12G20    30.05R WCI  -4
AUSTIN         PTSUNNY    5   0  78 N16G23    30.03R WCI -14
PRESTON        CLOUDY     4  -2  74 N16G23    29.99S WCI -14
$$
ABBREVIATIONS USED IN REMARKS
   TC - TEMPERATURES IN CELSIUS
  WCI - WIND CHILL INDEX
   HX - HEAT INDEX
  VSB - VISIBILITY
$$



USA.gov is the U.S. government's official web portal to all federal, state and local government web resources and services.